sat.trackr.live / text

‹ back to catalog

STARLINK-37090

NORAD 68193 · 2026-050AC

PAYLOAD ACTIVE UNKNOWN

§ Identity

Operator
Country
US
Launch date
2026-03-14
Launch site
AFETR
Launch vehicle
Mass (kg)
RCS (m²)

Purposes: comms

External: N2YO · Heavens-Above · Gunter

§ Orbital elements

Epoch: 2026-09-19T21:29:59.743104Z

Period
93.85 min
Inclination
53.1591°
Eccentricity
0.0001231
Mean motion
15.34410484 rev/d
Perigee alt
461.8 km
Apogee alt
463.5 km
Semi-major
6,840.8 km
B*
6.6398e-4
RAAN
80.6565°
Arg perigee
67.1710°
Mean anomaly
292.9423°
Rev number
3,047

§ Raw data

STARLINK-370901 68193U 26050AC  26262.89583036  .00022131  00000+0  66398-3 0  99932 68193  53.1591  80.6565 0001231  67.1710 292.9423 15.34410484 30471

JSON: /api/v1/satellites/68193 · /tle

For live sub-satellite position, see the globe view (requires WebGL).

§ Visibility from observer

Set your observer location to see the next 7 days of passes ≥ 10°. The values pass through the URL so the page stays shareable.

No JS? Fill the form by hand. The geolocation button needs JavaScript.